LGSA

Chania

Airport
ICAO code
LGSA
IATA Code
CHQ
Summary
ICAO Region
EUR
ICAO Territory
Location

Souda Bay, Crete

Serving
Chania
Elevation
490 ft
Coordinates
35° 31' 54" N , 24° 8' 59" E
KCC
Airport WX
Low Level Turbulence
Metar
LGSA 041120Z 08007KT 9999 FEW020 17/11 Q1014

Description

Joint civil/military international airport serving the city of Chania on the island of Crete.

Climatology

Mediterranean climate (Köppen climate classification Csa) - Hot, dry summer and a mild wet winter.

Runways

Designator Length Width Surface Rops
11/29 3347 45 ASP Yes/Yes

Airport map

Aerial View

Airport accidents

SKYbrary Partners:

Safety knowledge contributed by: